Regional Weather Roundup
Issued by NWS Sterling, VA

Home | Current Version | Previous Version | Text Only | Print | Product List | Glossary On
Versions: 1 2 3 4 5 6 7 8 9 10 11 12 13 14 15 16 17 18 19 20 21 22 23 24 25 26 27 28 29 30 31 32 33 34 35 36 37 38 39 40 41 42 43 44 45 46 47 48 49 50
000
ASUS41 KLWX 170810
RWRLWX

REGIONAL WEATHER ROUNDUP
NATIONAL WEATHER SERVICE BALTIMORE MD/WASHINGTON DC
300 AM EST SUN FEB 17 2019

Note: "FAIR" indicates few or no clouds below 12,000 feet
with no significant weather and/or obstructions to visibility.
 TC=TEMPERATURE CELSIUS

 * =Non NWS site. Station does not report precipitation (e.g. rain,
    snow, etc.), thunder, or fog.

DCZ001-MDZ009-015-VAZ040>042-051-053>054-170900-
WASHINGTON METRO

CITY           SKY/WX    TMP DP  RH WIND       PRES   REMARKS
WASHINGTON NAT MOCLDY    33  21  61 N9        30.08S WCI  25
DULLES         FAIR      28  19  69 N5        30.07F WCI  23
ANDREWS AFB    FAIR      27  19  74 N6        30.05S WCI  20
FT BELVOIR     FAIR      30  19  64 CALM      30.07F
QUANTICO       FAIR      34  23  64 N3        30.10S
LEESBURG*      FAIR      32  25  74 N5        30.08F WCI  27
MANASSAS*      FAIR      26  21  81 NW5       30.08S WCI  20
GAITHERSBURG*  FAIR      28  21  75 N3        30.06S

$$

MDZ006>007-011-014-170900-
BALTIMORE METRO

CITY           SKY/WX    TMP DP  RH WIND       PRES   REMARKS
BWI AIRPORT    MOCLDY    31  20  63 N6        30.07S WCI  25
MD SCIENCE CTR   N/A     34  19  54 MISG      30.07F
MARTIN STATE   FAIR      32  23  69 NW3       30.09F
ANNAPOLIS      FAIR      37  23  56 N6        30.07R WCI  32

$$

MDZ012-015-019>023-170900-
MARYLAND EASTERN SHORE

CITY           SKY/WX    TMP DP  RH WIND       PRES   REMARKS
OCEAN CITY     FAIR      35  22  58 MISG      30.04S
SALISBURY      FAIR      31  22  69 N6        30.05R WCI  25
EASTON*        FAIR      31  22  67 N5        30.10R WCI  27

$$

MDZ017>025-170900-
SOUTHERN MARYLAND

CITY           SKY/WX    TMP DP  RH WIND       PRES   REMARKS
PATUXENT RIVER FAIR      36  25  64 NE10      30.06R WCI  28
ST INIGOES     FAIR      34  26  72 N3        30.05R
LEONARDTOWN*   FAIR      30  25  80 CALM      30.06S

$$

MDZ003>005-170900-
NORTH CENTRAL MARYLAND

CITY           SKY/WX    TMP DP  RH WIND       PRES   REMARKS
FREDERICK*     NOT AVBL
HAGERSTOWN APT FAIR      28  17  63 NE3       30.06R
WESTMINSTER*   FAIR      27  18  69 CALM      30.05S

$$

MDZ501>502-170900-
WESTERN MARYLAND

CITY           SKY/WX    TMP DP  RH WIND       PRES   REMARKS
OAKLAND*       FAIR      18  16  93 SE14      29.89F WCI   4
CUMBERLAND*    NOT AVBL

$$

VAZ025>031-170900-
SHENANDOAH VALLEY

CITY           SKY/WX    TMP DP  RH WIND       PRES   REMARKS
WINCHESTER*    FAIR      23  19  86 CALM      30.08S
FRONT ROYAL*   FAIR      25  19  80 E5        30.06S WCI  19
LURAY*         FAIR      28  21  74 CALM      30.05S
NEW MARKET*    FAIR      24  20  85 CALM      30.03F
WAYNESBORO*    FAIR      26  19  74 CALM      30.03R

$$

WVZ021-048>050-054>055-170900-
EASTERN WEST VIRGINIA PANHANDLE

CITY           SKY/WX    TMP DP  RH WIND       PRES   REMARKS
MARTINSBURG    FAIR      23  19  85 CALM      30.06S

$$

VAZ036>039-050-170900-
CENTRAL FOOTHILLS

CITY           SKY/WX    TMP DP  RH WIND       PRES   REMARKS
CHARLOTTESVILL FAIR      31  18  58 CALM      30.06R
CULPEPER*      FAIR      27  20  75 CALM      30.08F
ORANGE*        FAIR      30  21  69 N3        30.06F
GORDONSVILLE*  FAIR      30  21  68 CALM      30.06R
WARRENTON*     FAIR      24  19  82 CALM      30.07S

$$

VAZ055>057-170900-
NORTH AND CENTRAL PIEDMONT

CITY           SKY/WX    TMP DP  RH WIND       PRES   REMARKS
FREDERICKSBRG* FAIR      32  24  72 N3        30.07R
STAFFORD*      FAIR      30  22  73 N5        30.11S WCI  25

$$

NCZ024-NYZ072-PAZ021-071-VAZ022-071-170900-
OTHER REGIONAL OBSERVATIONS

CITY           SKY/WX    TMP DP  RH WIND       PRES   REMARKS
NEW YORK CITY  FAIR      28  14  55 MISG      30.07F
PHILADELPHIA   FAIR      29  15  56 N10       30.09R WCI  20
PITTSBURGH     FAIR      23  16  74 NE5       30.00F WCI  17
ROANOKE        CLOUDY    37  31  78 SE6       30.03S WCI  32
RICHMOND       FAIR      30  24  78 N6        30.04S WCI  24
RALEIGH        CLOUDY    36  32  85 N3        30.04R

$$

ANZ530>537-170900-
MARINE OBSERVATIONS

STATION/POSITION TIME  TEMP    WIND        PRES
                       AIR SEA DIR/SP/G
                 (UTC) (F)     (DEG/KT/KT) (MB)
THOMAS PT LIGHT  0800   35 38   10/ 12/ 14 1018.7S
BALT KEY BRIDGE  0742   33      10/ 11/ 12 1018.3F
COVE POINT       0742   36      40/ 13/ 16   N/A
LEWISETTA        0742   37 41   40/  8/ 12 1017.5R
SOLOMONS ISLAND  0742   36 40   20/  5/  7 1017.5R
PINEY POINT      0742           60/  6/  7   N/A

$$




USA.gov is the U.S. government's official web portal to all federal, state and local government web resources and services.